Probability
10 9 8 9 11 12 14 16 14 11 9 7 6 8 9 8 8 9 8 8 8 9 12 14 14 13 13 12 13 12 11 9 6 3 3 4 3 2 4 5 5 3 1
12 11 10 12 14 14 15 16 14 11 9 8 8 10 9 9 10 11 11 11 10 10 11 13 15 15 13 12 12 12 11 10 7 4 4 4 3 3 4 6 5 3 2
14 14 14 15 18 18 17 16 14 11 10 9 10 10 10 9 11 13 15 15 14 11 10 12 14 15 14 12 11 10 9 8 8 6 4 3 3 4 6 7 7 6 5
15 17 18 19 21 21 20 18 15 12 10 9 9 10 10 10 11 13 15 16 16 14 12 13 13 14 14 13 11 9 7 7 7 7 6 4 4 5 6 7 8 8 6
16 17 19 21 22 21 19 17 15 13 10 8 8 9 11 11 11 12 14 15 16 15 13 13 13 12 13 13 11 9 7 6 6 6 5 5 5 6 6 7 7 7 7
16 17 18 20 21 19 15 13 12 11 10 8 7 9 11 12 11 10 12 13 13 12 10 11 11 11 11 11 10 7 5 5 5 5 4 4 4 5 6 6 6 6 6
17 18 20 21 21 18 13 10 9 10 9 8 9 10 11 11 8 7 9 11 11 9 8 8 9 9 10 10 8 5 4 4 4 4 5 5 4 4 5 6 6 6 6
19 20 20 21 21 18 13 9 8 9 9 9 11 11 9 8 6 4 4 7 9 8 8 8 8 9 9 8 7 5 5 4 3 3 5 5 4 3 3 4 5 6 5
19 19 18 18 18 16 13 12 11 11 11 11 11 10 8 6 5 2 2 4 8 9 9 8 8 7 6 5 6 7 7 6 3 2 3 2 2 1 1 2 3 4 3
17 16 14 12 12 12 12 13 14 14 13 12 11 9 8 7 5 3 1 4 8 11 11 10 7 4 3 2 4 7 8 7 6 5 3 1 1 0 0 1 1 1 1
13 13 11 9 7 8 10 12 14 15 15 13 11 9 9 9 8 5 2 3 7 11 12 11 7 3 1 0 2 4 5 5 6 6 5 3 1 0 0 0 0 0 0
10 10 9 8 6 6 8 10 12 15 16 14 12 11 10 10 9 6 2 2 4 8 10 10 7 2 0 0 1 2 2 2 3 4 4 3 2 1 1 0 0 0 0
9 8 7 6 6 5 6 7 10 12 14 13 12 11 10 9 8 6 3 1 2 4 6 6 4 1 0 0 0 0 0 0 1 1 1 2 2 2 2 1 0 0 0
7 7 5 4 4 4 4 5 6 9 11 11 11 9 7 6 6 5 3 2 1 1 2 2 2 0 0 0 0 0 0 0 0 0 0 2 3 3 2 1 0 0 0
6 5 4 3 3 3 3 3 3 5 7 9 8 6 4 3 3 2 2 2 2 1 1 1 1 1 0 1 1 1 0 0 0 1 1 2 2 1 1 0 0 0 0
5 4 3 3 4 4 3 2 1 2 3 4 4 3 3 2 1 0 1 1 1 1 1 1 2 2 2 2 2 2 1 1 1 2 2 3 2 1 0 0 0 0 0
4 3 3 4 5 6 5 4 3 3 2 2 1 1 1 1 0 0 0 0 0 0 1 1 1 2 3 3 3 3 3 2 3 3 3 3 3 1 0 0 0 0 0
3 3 3 4 5 6 6 6 7 6 4 1 0 0 0 0 0 0 0 0 0 1 2 2 1 2 3 3 3 3 3 3 3 3 3 3 3 2 1 1 0 0 0
3 3 3 4 4 5 5 6 7 6 3 1 0 0 0 0 0 0 0 0 0 1 2 3 3 3 3 3 3 3 3 3 3 3 3 3 3 3 3 2 1 0 0
4 4 4 5 5 4 4 5 5 2 1 0 0 0 0 0 0 0 0 0 0 1 3 3 3 3 4 3 2 3 3 3 3 3 3 3 3 3 3 3 2 1 1
5 5 5 6 5 4 3 4 3 2 1 0 0 0 0 0 0 0 0 0 1 2 3 3 3 4 4 3 2 3 3 3 3 3 3 3 3 3 3 3 3 3 2
4 3 4 4 4 3 2 2 2 2 1 0 0 0 0 0 0 0 0 0 2 3 3 3 3 3 3 2 1 2 3 3 3 3 3 3 2 2 2 2 2 2 2
2 1 1 1 1 1 1 1 1 1 1 0 0 0 0 0 0 0 0 0 1 2 3 3 3 3 2 1 0 1 1 2 3 3 2 1 1 1 1 0 1 1 1
1 0 0 0 0 0 0 0 0 0 0 0 0 0 0 0 0 0 0 0 0 1 2 3 3 3 3 1 0 0 0 1 1 2 1 0 0 0 0 0 0 0 0
0 0 0 0 0 0 0 0 0 0 0 0 0 0 0 0 0 0 0 0 0 0 1 3 3 3 3 2 1 0 0 0 0 0 0 0 0 0 0 0 0 0 0
0 0 0 0 0 0 0 0 0 0 0 0 0 0 0 0 0 0 0 0 0 0 1 2 3 3 3 2 1 0 0 0 0 0 0 0 0 0 0 0 0 0 0
Wind_Speed
4 4 3 3 3 3 3 4 4 4 4 4 4 4 4 4 4 4 4 4 5 5 5 5 5 4 4 3 3 3 3 4 5 4 2 2 2 2 2 2 2 2 2
4 3 3 3 2 3 3 3 3 3 4 4 4 4 4 4 4 4 5 5 5 6 5 5 5 4 5 4 3 4 4 4 4 5 3 2 3 3 3 3 2 2 2
3 3 3 3 3 3 3 2 2 2 2 3 3 4 4 3 4 4 5 5 5 6 5 6 5 5 5 4 4 4 4 3 3 3 3 2 2 2 2 3 3 3 3
3 3 3 3 3 3 3 3 3 2 2 2 3 3 3 4 4 5 5 5 5 5 5 5 5 5 5 5 4 5 4 3 3 3 3 2 2 2 2 3 3 2 3
3 3 4 3 2 2 2 2 2 2 3 2 2 2 3 4 4 4 4 4 4 4 4 4 5 5 6 5 4 4 4 3 3 3 3 2 2 2 3 2 3 3 3
3 3 2 2 2 2 2 2 2 3 2 2 3 3 3 3 4 5 4 3 3 3 3 2 2 3 3 4 4 4 4 4 4 3 3 3 4 4 3 3 3 2 3
2 2 2 2 2 2 2 2 3 3 3 3 3 3 3 3 4 5 5 3 3 3 2 2 1 1 1 2 2 2 3 4 5 4 4 5 4 4 4 4 4 4 4
1 1 1 2 2 1 2 2 2 2 3 3 3 3 3 3 4 4 5 4 3 3 3 3 2 1 1 1 1 1 2 2 3 3 4 5 5 4 5 5 4 4 3
1 1 2 1 2 2 2 2 2 2 3 3 3 3 3 3 3 4 4 3 3 3 2 2 3 2 2 2 2 2 2 2 2 2 3 4 4 4 3 2 2 2 3
3 2 2 1 2 2 2 3 2 2 3 2 2 3 3 3 3 3 4 3 2 2 2 2 3 3 2 2 3 3 3 3 2 2 2 3 3 2 3 4 3 3 2
2 1 1 1 2 2 2 2 2 2 1 1 2 3 3 3 3 3 4 3 3 3 2 2 2 3 3 3 4 4 5 3 2 2 2 2 2 1 1 2 3 3 3
1 1 1 2 2 1 1 1 1 2 2 2 2 2 2 2 2 2 3 4 4 4 3 2 2 3 3 3 3 3 3 2 1 1 1 2 2 2 2 2 2 2 3
1 2 2 2 1 1 1 1 1 1 2 2 2 2 2 2 2 2 3 4 5 3 2 2 2 2 2 1 1 1 2 1 1 1 2 2 2 2 2 1 1 1 2
1 2 2 1 1 1 1 1 2 2 2 2 2 3 3 2 2 1 1 2 2 3 2 1 2 1 1 0 0 1 1 1 2 2 2 2 1 1 1 1 1 1 1
2 2 2 2 2 2 1 2 3 3 3 3 3 3 3 3 3 3 2 2 2 2 2 1 1 1 1 1 1 0 1 1 1 1 1 1 1 1 2 1 1 1 1
2 2 2 2 2 1 1 1 2 2 2 3 3 3 3 3 3 3 3 3 4 5 4 2 2 2 2 2 1 1 1 1 1 1 1 1 2 2 2 2 1 2 2
2 2 2 1 1 1 1 1 1 1 1 1 0 0 1 2 2 2 2 2 3 5 3 2 2 2 2 1 1 1 1 1 1 1 1 1 2 2 2 2 2 2 2
1 2 1 1 1 1 1 1 1 1 1 1 2 2 1 2 2 2 3 4 2 1 1 2 2 2 2 1 1 1 1 1 1 1 1 1 2 2 2 2 2 3 3
1 1 1 1 1 0 0 0 0 1 0 0 1 2 2 3 4 4 4 2 1 1 1 1 1 1 1 1 1 1 1 1 1 1 2 2 2 2 2 2 2 3 3
1 1 0 0 0 1 0 0 0 1 1 1 1 1 2 2 2 2 2 1 0 0 0 1 1 0 1 1 1 1 1 1 1 1 2 2 2 2 3 3 3 3 3
1 1 2 1 1 1 1 1 1 1 1 1 1 1 2 1 1 1 1 1 1 1 1 1 0 0 1 1 1 1 1 1 1 1 1 2 2 2 2 3 3 3 3
0 0 1 0 1 1 1 1 1 1 1 1 1 1 1 1 1 0 0 1 1 1 1 1 1 0 1 1 1 1 1 1 1 1 2 2 2 2 2 2 2 3 3
1 1 1 1 1 1 1 1 1 1 1 1 1 1 1 1 0 0 1 0 0 0 0 0 0 0 0 1 1 1 2 2 2 2 2 2 2 2 2 3 3 3 3
1 1 1 1 1 1 1 1 1 1 1 1 1 0 0 0 0 0 0 0 1 1 1 0 0 0 1 1 1 1 1 2 1 1 2 2 2 2 2 2 3 3 3
1 1 1 1 1 1 1 1 1 1 0 0 0 0 0 0 0 1 1 1 1 1 1 1 1 1 1 1 1 1 1 1 1 1 1 1 2 2 2 2 2 3 3
1 1 1 1 1 1 1 1 1 1 0 0 0 0 0 0 0 1 1 1 1 1 1 1 1 1 1 1 1 2 1 1 1 1 1 1 1 1 1 2 2 2 3
Wind_Direction
191 198 210 211 213 213 221 229 227 230 220 216 211 206 210 211 206 208 222 222 222 230 229 224 228 217 212 214 205 205 212 211 244 268 249 272 269 274 293 285 275 262 253
190 191 206 201 195 211 228 237 231 230 227 220 211 212 220 222 212 212 227 227 225 232 233 225 229 220 215 214 209 217 220 214 224 257 267 262 255 257 266 273 276 268 256
177 179 192 198 199 216 227 225 232 236 243 234 215 215 222 224 225 226 227 230 234 235 230 224 227 216 217 215 212 220 226 222 217 235 258 259 264 258 264 273 271 267 267
180 185 204 216 214 216 212 203 203 212 233 239 229 222 220 220 224 228 226 222 232 236 232 228 228 220 221 218 214 216 215 216 214 224 249 261 261 259 248 258 272 264 271
183 200 218 223 216 211 208 205 198 210 227 223 228 232 231 223 223 228 230 227 225 236 241 238 236 226 220 218 218 210 203 209 212 224 241 248 247 240 244 243 261 274 269
189 215 223 206 196 210 219 208 206 218 225 214 221 231 237 239 233 221 214 218 221 223 233 242 243 231 221 216 217 208 199 206 212 215 232 242 251 245 249 249 253 262 268
181 204 212 205 206 215 228 228 224 226 225 229 232 227 236 237 227 218 198 189 199 211 213 210 228 214 196 219 227 224 226 224 207 206 224 238 242 238 237 248 242 243 254
202 207 215 212 219 220 211 227 238 232 225 224 227 224 235 241 225 214 194 188 192 206 205 197 197 219 202 192 214 243 255 247 236 224 232 243 245 242 228 235 246 255 262
227 226 226 213 217 222 219 231 232 227 230 226 221 224 233 249 232 212 196 194 199 214 216 204 201 214 223 174 182 237 272 280 260 245 248 253 259 252 227 214 223 239 267
234 238 239 223 219 228 234 238 238 231 236 233 239 240 235 246 239 212 187 184 195 213 222 220 211 215 224 192 203 221 247 265 283 291 290 294 282 270 231 214 215 226 254
247 234 228 231 226 230 243 240 233 228 228 237 247 258 250 251 250 220 192 189 198 202 211 226 236 234 234 222 216 222 231 241 248 255 276 289 292 279 257 240 222 218 231
252 249 254 258 261 271 247 257 241 220 217 238 254 277 276 262 246 230 206 203 197 202 211 217 223 234 237 231 224 230 227 211 212 245 277 287 292 296 295 285 262 244 241
248 260 271 272 267 258 234 246 259 237 228 244 241 255 274 272 252 223 210 208 201 200 208 206 214 221 232 218 192 210 193 180 188 230 263 272 280 288 300 310 315 304 303
262 266 261 254 265 269 256 239 233 232 223 229 245 253 257 253 251 245 221 205 198 194 198 183 180 168 163 165 124 175 180 185 201 225 247 268 291 298 296 299 290 306 305
268 274 279 269 247 241 243 240 240 247 237 221 231 231 239 253 260 241 212 209 203 192 158 143 139 144 152 146 157 194 193 194 213 224 235 259 277 287 294 297 271 270 268
271 265 258 259 252 238 234 289 290 253 266 241 228 220 240 244 257 252 227 206 189 167 152 170 189 198 202 204 212 224 217 214 219 222 231 249 267 277 288 292 278 268 278
260 265 267 265 254 238 224 223 275 333 7 313 281 166 222 233 234 230 205 176 161 153 159 188 199 207 210 206 210 219 234 236 228 224 229 236 249 263 270 277 285 287 287
288 295 296 278 273 253 233 216 211 224 284 347 15 42 75 119 114 106 117 113 104 126 173 194 202 204 200 200 206 216 227 227 221 223 230 236 237 247 261 273 277 282 285
295 304 315 310 315 287 273 244 217 215 203 22 20 27 43 77 81 84 103 101 132 157 190 217 224 211 198 198 216 222 218 223 232 235 237 239 237 237 251 264 271 273 271
295 311 15 37 31 38 43 91 102 115 108 71 37 27 57 73 70 73 79 79 107 171 187 204 219 199 200 208 212 220 231 244 256 260 262 259 253 247 253 258 258 262 264
316 358 46 58 75 87 83 105 109 107 100 77 24 33 107 121 124 110 128 181 206 216 217 210 199 184 228 231 227 233 240 254 260 266 267 265 261 259 261 260 261 260 263
46 43 49 53 58 71 71 88 100 105 102 92 47 44 102 115 113 141 219 237 238 227 208 185 195 226 238 243 243 242 244 250 255 257 257 261 263 262 263 263 267 271 270
97 96 90 81 91 94 95 94 100 103 102 101 92 71 76 85 103 258 270 285 341 20 56 115 169 296 327 293 268 248 254 258 252 240 242 253 266 274 273 271 271 277 280
112 115 124 116 111 120 125 120 112 108 102 99 88 69 39 270 250 267 292 18 43 31 29 60 110 328 337 342 329 296 281 285 277 246 234 241 260 279 287 286 283 284 285
116 125 131 135 133 137 145 152 146 134 113 102 81 86 72 53 36 31 47 56 60 44 15 357 351 325 320 313 321 317 318 318 309 297 244 234 256 271 283 291 298 303 301
98 103 112 125 138 144 152 175 191 187 175 144 118 119 110 94 60 55 55 49 35 28 9 348 337 327 325 325 325 323 320 328 325 295 235 218 249 289 310 307 307 310 313